Stations météo

réclame
Mon MeteoGroup
Siguenza, Espagne (8150): Température de l'air & dewpoint: 11.10.2017 17:00:00 - 17.10.2017 17:00:00 (CEST)Siguenza, Espagne (8150): visibility: 11.10.2017 17:00:00 - 17.10.2017 17:00:00 (CEST)Siguenza, Espagne (8150): Ensoleillement: 11.10.2017 17:00:00 - 17.10.2017 17:00:00 (CEST)Siguenza, Espagne (8150): Quantités de précipitations: 11.10.2017 17:00:00 - 17.10.2017 17:00:00 (CEST)
Date & Time tt [°C] td [°C] vv [km] sd [min] rr [mm]
17.10.2017 17:00:00 - - - - -
17.10.2017 16:00:00 18,8 8,2 19 2 0,0
17.10.2017 15:00:00 18,0 8,0 18 28 0,0
17.10.2017 14:00:00 18,2 8,2 20 23 -
17.10.2017 13:00:00 18,4 7,5 20 1 0,0
17.10.2017 12:00:00 16,6 7,3 15 20 0,0
17.10.2017 11:00:00 14,4 7,2 20 0 0,0
17.10.2017 10:00:00 8,9 6,2 16 0 0,0
17.10.2017 09:00:00 3,7 2,7 11 0 0,0
17.10.2017 08:00:00 3,0 2,3 10 0 -
17.10.2017 07:00:00 3,0 1,7 11 0 0,0
17.10.2017 06:00:00 3,6 2,1 12 0 0,0
17.10.2017 05:00:00 4,5 2,4 13 0 0,0
17.10.2017 04:00:00 5,6 3,6 13 0 0,0
17.10.2017 03:00:00 5,7 3,2 13 0 0,0
17.10.2017 02:00:00 6,9 3,7 14 0 -
17.10.2017 01:00:00 7,7 4,3 15 0 0,0
17.10.2017 00:00:00 8,1 3,4 15 0 0,0
16.10.2017 23:00:00 9,2 3,0 18 0 0,0
16.10.2017 22:00:00 11,0 3,6 16 0 0,0
16.10.2017 21:00:00 13,0 3,7 17 0 0,0
16.10.2017 20:00:00 16,7 4,1 16 0 -
16.10.2017 19:00:00 22,0 3,2 17 12 0,0
16.10.2017 18:00:00 24,5 4,8 20 18 0,0
16.10.2017 17:00:00 25,3 3,9 19 12 0,0
16.10.2017 16:00:00 24,9 4,6 20 41 0,0
16.10.2017 15:00:00 24,4 6,2 18 60 0,0
16.10.2017 14:00:00 23,3 7,0 14 60 -
16.10.2017 13:00:00 21,2 8,5 19 17 0,0
16.10.2017 12:00:00 18,7 8,7 20 33 0,0
16.10.2017 11:00:00 15,9 9,1 20 0 0,0
16.10.2017 10:00:00 8,1 5,7 12 0 0,0
16.10.2017 09:00:00 3,8 3,1 11 0 0,0
16.10.2017 08:00:00 3,3 1,7 11 0 -
16.10.2017 07:00:00 3,8 1,8 11 0 0,0
16.10.2017 06:00:00 4,3 2,2 14 0 0,0
16.10.2017 05:00:00 5,0 2,4 12 0 0,0
16.10.2017 04:00:00 6,1 2,7 15 0 0,0
16.10.2017 03:00:00 7,4 3,1 15 0 0,0
16.10.2017 02:00:00 9,4 3,4 15 0 -
16.10.2017 01:00:00 9,1 3,1 13 0 0,0
16.10.2017 00:00:00 10,8 3,6 14 0 0,0
15.10.2017 23:00:00 12,6 4,1 14 0 0,0
15.10.2017 22:00:00 15,6 4,4 13 0 0,0
15.10.2017 21:00:00 16,0 4,7 14 0 0,0
15.10.2017 20:00:00 19,9 5,2 17 0 -
15.10.2017 19:00:00 23,8 4,7 20 6 0,0
15.10.2017 18:00:00 26,9 2,8 20 13 0,0
15.10.2017 17:00:00 28,2 2,4 14 11 0,0
15.10.2017 16:00:00 28,3 3,2 17 41 0,0
15.10.2017 15:00:00 27,4 2,5 17 60 0,0
15.10.2017 14:00:00 26,8 5,7 15 60 -
15.10.2017 13:00:00 24,7 8,6 20 12 0,0
15.10.2017 12:00:00 21,3 9,2 16 31 0,0
15.10.2017 11:00:00 15,0 8,9 16 0 0,0
15.10.2017 10:00:00 9,3 6,2 14 0 0,0
15.10.2017 09:00:00 5,5 3,0 16 0 0,0
15.10.2017 08:00:00 5,5 2,5 13 0 -
15.10.2017 07:00:00 5,2 2,0 14 0 0,0
15.10.2017 06:00:00 5,5 1,6 13 0 0,0
15.10.2017 05:00:00 5,9 1,6 16 0 0,0
15.10.2017 04:00:00 6,4 1,5 14 0 0,0
15.10.2017 03:00:00 7,5 1,8 14 0 0,0
15.10.2017 02:00:00 7,3 1,4 15 0 -
15.10.2017 01:00:00 8,0 1,2 15 0 0,0
15.10.2017 00:00:00 8,9 0,9 18 0 0,0
14.10.2017 23:00:00 10,4 1,0 20 0 0,0
14.10.2017 22:00:00 11,6 1,6 18 0 0,0
14.10.2017 21:00:00 14,4 1,0 20 0 0,0
14.10.2017 20:00:00 18,8 0,9 17 0 -
14.10.2017 19:00:00 24,3 -0,8 20 20 0,0
14.10.2017 18:00:00 26,4 -1,4 20 11 0,0
14.10.2017 17:00:00 27,1 2,2 20 15 0,0
14.10.2017 16:00:00 27,2 3,0 20 43 0,0
14.10.2017 15:00:00 27,1 3,6 20 60 0,0
14.10.2017 14:00:00 26,3 4,2 20 60 -
14.10.2017 13:00:00 25,1 5,3 17 14 0,0
14.10.2017 12:00:00 22,0 6,7 20 36 0,0
14.10.2017 11:00:00 - - - - -
14.10.2017 10:00:00 - - - - -
14.10.2017 09:00:00 - - - - -
14.10.2017 08:00:00 - - - - -
14.10.2017 07:00:00 3,8 1,0 11 0 0,0
14.10.2017 06:00:00 4,1 1,0 16 0 0,0
14.10.2017 05:00:00 4,7 1,2 15 0 0,0
14.10.2017 04:00:00 5,1 1,6 16 0 0,0
14.10.2017 03:00:00 5,8 1,5 14 0 0,0
14.10.2017 02:00:00 6,4 1,7 15 0 -
14.10.2017 01:00:00 7,1 1,8 15 0 0,0
14.10.2017 00:00:00 8,2 1,8 16 0 0,0
13.10.2017 23:00:00 9,8 2,4 14 0 0,0
13.10.2017 22:00:00 11,5 2,8 16 0 0,0
13.10.2017 21:00:00 14,4 2,6 16 0 0,0
13.10.2017 20:00:00 19,4 3,6 19 0 -
13.10.2017 19:00:00 24,2 3,0 18 18 0,0
13.10.2017 18:00:00 26,4 3,6 13 1 0,0
13.10.2017 17:00:00 27,4 3,8 20 15 0,0
13.10.2017 16:00:00 27,7 2,7 20 46 0,0
13.10.2017 15:00:00 27,3 5,6 17 60 0,0
13.10.2017 14:00:00 26,8 5,7 20 58 -
13.10.2017 13:00:00 25,0 5,8 20 19 0,0
13.10.2017 12:00:00 22,0 6,7 13 41 0,0
13.10.2017 11:00:00 15,2 6,2 14 0 0,0
13.10.2017 10:00:00 9,6 3,8 14 1 0,0
13.10.2017 09:00:00 5,1 1,4 13 0 0,0
13.10.2017 08:00:00 5,0 1,1 13 0 -
13.10.2017 07:00:00 4,8 0,9 14 0 0,0
13.10.2017 06:00:00 5,4 1,2 13 0 0,0
13.10.2017 05:00:00 5,8 1,0 13 0 0,0
13.10.2017 04:00:00 6,4 0,9 14 0 0,0
13.10.2017 03:00:00 6,7 1,0 14 0 0,0
13.10.2017 02:00:00 7,6 1,0 14 0 -
13.10.2017 01:00:00 8,2 1,2 14 0 0,0
13.10.2017 00:00:00 9,4 1,1 12 0 0,0
12.10.2017 23:00:00 - - - - -
12.10.2017 22:00:00 - - - - -
12.10.2017 21:00:00 - - - - -
12.10.2017 20:00:00 - - - - -
12.10.2017 19:00:00 24,5 0,8 18 7 0,0
12.10.2017 18:00:00 25,5 0,9 16 1 0,0
12.10.2017 17:00:00 26,8 0,5 20 14 0,0
12.10.2017 16:00:00 27,5 -2,3 17 47 0,0
12.10.2017 15:00:00 27,4 -2,4 14 59 0,0
12.10.2017 14:00:00 26,3 -2,3 13 60 -
12.10.2017 13:00:00 24,5 -0,6 20 18 0,0
12.10.2017 12:00:00 19,4 -1,1 14 35 0,0
12.10.2017 11:00:00 13,4 1,7 15 0 0,0
12.10.2017 10:00:00 6,9 0,8 12 11 0,0
12.10.2017 09:00:00 1,8 -1,3 13 2 0,0
12.10.2017 08:00:00 1,4 -1,5 13 0 -
12.10.2017 07:00:00 2,2 -1,4 14 0 0,0
12.10.2017 06:00:00 2,4 -1,4 14 0 0,0
12.10.2017 05:00:00 3,2 -1,2 15 0 0,0
12.10.2017 04:00:00 3,4 -1,3 15 0 0,0
12.10.2017 03:00:00 4,1 -1,3 16 0 0,0
12.10.2017 02:00:00 5,0 -1,0 13 0 -
12.10.2017 01:00:00 5,6 -0,9 15 0 0,0
12.10.2017 00:00:00 7,2 -1,0 14 0 0,0
11.10.2017 23:00:00 8,2 -0,8 17 0 0,0
11.10.2017 22:00:00 10,2 -0,3 15 0 0,0
11.10.2017 21:00:00 12,9 -0,7 11 0 0,0
11.10.2017 20:00:00 17,7 0,4 15 0 -
11.10.2017 19:00:00 22,9 -1,2 17 7 0,0
11.10.2017 18:00:00 24,9 -1,8 20 1 0,0
11.10.2017 17:00:00 25,9 -1,8 20 10 0,0

tt = Température de l'air
td = dewpoint
vv = visibility
sd = Ensoleillement
rr = Quantités de précipitations

stations d'obs. à proximité